| time (UTC) | temp F | wind direction | speed MPH | gust MPH | rain 1hr in | rain 24hr in | rain mn in | humidity % | barometer mb |
| 20260504040647 | 58 | 236 | 0.0 | 1.0 | 0.00 | 0.00 | 0.00 | 42 | 1005.2 |
| 20260504040144 | 58 | 159 | 4.0 | 6.0 | 0.00 | 0.00 | 0.00 | 44 | 1005.5 |
| 20260504035641 | 57 | 188 | 0.0 | 1.0 | 0.00 | 0.00 | 0.00 | 42 | 1005.7 |
| 20260504035138 | 57 | 181 | 0.0 | 0.0 | 0.00 | 0.00 | 0.00 | 43 | 1005.7 |
| 20260504034635 | 58 | 205 | 0.0 | 1.0 | 0.00 | 0.00 | 0.00 | 42 | 1005.9 |
| 20260504034132 | 57 | 165 | 0.0 | 1.0 | 0.00 | 0.00 | 0.00 | 43 | 1005.9 |
| 20260504033630 | 57 | 214 | 0.0 | 0.0 | 0.00 | 0.00 | 0.00 | 43 | 1006.0 |
| 20260504033127 | 57 | 244 | 0.0 | 1.0 | 0.00 | 0.00 | 0.00 | 42 | 1006.3 |
| 20260504032624 | 57 | 270 | 0.0 | 1.0 | 0.00 | 0.00 | 0.00 | 42 | 1006.2 |
| 20260504032121 | 57 | 213 | 0.0 | 0.0 | 0.00 | 0.00 | 0.00 | 42 | 1006.2 |
| 20260504031618 | 57 | 275 | 0.0 | 0.0 | 0.00 | 0.00 | 0.00 | 42 | 1006.4 |
| 20260504031114 | 57 | 275 | 0.0 | 0.0 | 0.00 | 0.00 | 0.00 | 42 | 1006.3 |
| 20260504030611 | 58 | 275 | 0.0 | 0.0 | 0.00 | 0.00 | 0.00 | 42 | 1006.4 |
| 20260504030108 | 58 | 275 | 0.0 | 0.0 | 0.00 | 0.00 | 0.00 | 41 | 1006.4 |
| 20260504025605 | 58 | 275 | 0.0 | 1.0 | 0.00 | 0.00 | 0.00 | 40 | 1006.4 |
| 20260504025101 | 58 | 262 | 0.0 | 1.0 | 0.00 | 0.00 | 0.00 | 41 | 1006.4 |
| 20260504024559 | 58 | 225 | 0.0 | 0.0 | 0.00 | 0.00 | 0.00 | 41 | 1006.4 |
| 20260504024055 | 58 | 188 | 0.0 | 1.0 | 0.00 | 0.00 | 0.00 | 40 | 1006.7 |
| 20260504023552 | 59 | 214 | 0.0 | 0.0 | 0.00 | 0.00 | 0.00 | 40 | 1006.6 |
| 20260504023048 | 60 | 204 | 0.0 | 1.0 | 0.00 | 0.00 | 0.00 | 39 | 1006.4 |
| 20260504022544 | 60 | 224 | 0.0 | 2.0 | 0.00 | 0.00 | 0.00 | 39 | 1006.6 |
| 20260504022040 | 60 | 141 | 0.0 | 0.0 | 0.00 | 0.00 | 0.00 | 38 | 1006.4 |
| 20260504021538 | 60 | 200 | 0.0 | 0.0 | 0.00 | 0.00 | 0.00 | 39 | 1006.4 |
| 20260504021035 | 60 | 194 | 0.0 | 0.0 | 0.00 | 0.00 | 0.00 | 39 | 1006.5 |
| 20260504020532 | 60 | 165 | 0.0 | 0.0 | 0.00 | 0.00 | 0.00 | 40 | 1006.4 |
| 20260504020028 | 61 | 210 | 0.0 | 0.0 | 0.00 | 0.00 | 0.00 | 39 | 1006.7 |
| 20260504015524 | 62 | 204 | 0.0 | 0.0 | 0.00 | 0.00 | 0.00 | 39 | 1006.6 |
| 20260504015020 | 63 | 185 | 0.0 | 1.0 | 0.00 | 0.00 | 0.00 | 37 | 1006.6 |
| 20260504014517 | 63 | 177 | 1.0 | 3.0 | 0.00 | 0.00 | 0.00 | 35 | 1006.6 |
| 20260504014014 | 64 | 179 | 2.0 | 3.0 | 0.00 | 0.00 | 0.00 | 34 | 1006.5 |
| 20260504013512 | 64 | 192 | 2.0 | 3.0 | 0.00 | 0.00 | 0.00 | 34 | 1006.6 |
| 20260504013009 | 64 | 222 | 3.0 | 5.0 | 0.00 | 0.00 | 0.00 | 34 | 1006.7 |
| 20260504012506 | 64 | 196 | 1.0 | 5.0 | 0.00 | 0.00 | 0.00 | 34 | 1006.6 |
| 20260504012004 | 65 | 219 | 1.0 | 5.0 | 0.00 | 0.00 | 0.00 | 34 | 1006.8 |
| 20260504011500 | 65 | 212 | 5.0 | 6.0 | 0.00 | 0.00 | 0.00 | 33 | 1006.5 |
| 20260504010955 | 65 | 215 | 2.0 | 6.0 | 0.00 | 0.00 | 0.00 | 33 | 1006.6 |
| 20260504010452 | 66 | 232 | 1.0 | 2.0 | 0.00 | 0.00 | 0.00 | 34 | 1006.7 |
| 20260504005948 | 66 | 182 | 1.0 | 5.0 | 0.00 | 0.00 | 0.00 | 33 | 1006.6 |
| 20260504005445 | 66 | 190 | 2.0 | 5.0 | 0.00 | 0.00 | 0.00 | 32 | 1006.7 |
| 20260504004943 | 67 | 183 | 2.0 | 5.0 | 0.00 | 0.00 | 0.00 | 31 | 1006.6 |
| 20260504004440 | 67 | 199 | 3.0 | 6.0 | 0.00 | 0.00 | 0.00 | 31 | 1006.7 |
| 20260504003937 | 66 | 217 | 3.0 | 7.0 | 0.00 | 0.00 | 0.00 | 32 | 1006.8 |
| 20260504003433 | 67 | 176 | 1.0 | 6.0 | 0.00 | 0.00 | 0.00 | 32 | 1006.7 |
| 20260504002930 | 68 | 216 | 2.0 | 3.0 | 0.00 | 0.00 | 0.00 | 31 | 1006.7 |
| 20260504002427 | 67 | 215 | 0.0 | 3.0 | 0.00 | 0.00 | 0.00 | 31 | 1006.8 |
| 20260504001924 | 67 | 205 | 2.0 | 6.0 | 0.00 | 0.00 | 0.00 | 30 | 1006.8 |
| 20260504001422 | 67 | 241 | 3.0 | 8.0 | 0.00 | 0.00 | 0.00 | 30 | 1006.7 |
| 20260504000918 | 68 | 224 | 2.0 | 6.0 | 0.00 | 0.00 | 0.00 | 29 | 1007.0 |
| 20260504000416 | 67 | 205 | 3.0 | 6.0 | 0.00 | 0.00 | 0.00 | 29 | 1007.1 |
| 20260503235913 | 68 | 204 | 8.0 | 9.0 | 0.00 | 0.00 | 0.00 | 28 | 1007.0 |
| 20260503235410 | 69 | 190 | 4.0 | 8.0 | 0.00 | 0.00 | 0.00 | 28 | 1007.1 |
| 20260503234908 | 69 | 161 | 2.0 | 10.0 | 0.00 | 0.00 | 0.00 | 27 | 1007.0 |
| 20260503234405 | 69 | 230 | 4.0 | 10.0 | 0.00 | 0.00 | 0.00 | 28 | 1006.8 |
| 20260503233903 | 69 | 229 | 5.0 | 9.0 | 0.00 | 0.00 | 0.00 | 27 | 1007.0 |
| 20260503233359 | 69 | 231 | 1.0 | 9.0 | 0.00 | 0.00 | 0.00 | 27 | 1006.8 |
| 20260503232855 | 69 | 162 | 4.0 | 7.0 | 0.00 | 0.00 | 0.00 | 28 | 1006.9 |
| 20260503232353 | 69 | 231 | 5.0 | 7.0 | 0.00 | 0.00 | 0.00 | 27 | 1007.0 |
| 20260503231851 | 69 | 244 | 6.0 | 9.0 | 0.00 | 0.00 | 0.00 | 27 | 1007.3 |
| 20260503231347 | 69 | 229 | 3.0 | 9.0 | 0.00 | 0.00 | 0.00 | 27 | 1007.1 |
| 20260503230843 | 69 | 259 | 2.0 | 8.0 | 0.00 | 0.00 | 0.00 | 26 | 1007.0 |
| 20260503230340 | 69 | 197 | 2.0 | 9.0 | 0.00 | 0.00 | 0.00 | 26 | 1007.1 |
| 20260503225839 | 69 | 259 | 4.0 | 6.0 | 0.00 | 0.00 | 0.00 | 26 | 1007.2 |
| 20260503225334 | 69 | 232 | 5.0 | 15.0 | 0.00 | 0.00 | 0.00 | 26 | 1007.2 |
| 20260503224830 | 69 | 217 | 9.0 | 13.0 | 0.00 | 0.00 | 0.00 | 27 | 1007.2 |
| 20260503224328 | 69 | 231 | 4.0 | 7.0 | 0.00 | 0.00 | 0.00 | 27 | 1007.1 |
| 20260503223826 | 70 | 155 | 4.0 | 7.0 | 0.00 | 0.00 | 0.00 | 26 | 1007.3 |
| 20260503223323 | 70 | 129 | 1.0 | 2.0 | 0.00 | 0.00 | 0.00 | 26 | 1007.3 |
| 20260503222818 | 70 | 266 | 2.0 | 5.0 | 0.00 | 0.00 | 0.00 | 27 | 1007.3 |
| 20260503222317 | 69 | 232 | 5.0 | 7.0 | 0.00 | 0.00 | 0.00 | 27 | 1007.5 |
| 20260503221815 | 69 | 160 | 1.0 | 10.0 | 0.00 | 0.00 | 0.00 | 27 | 1007.2 |
| 20260503221313 | 69 | 184 | 4.0 | 11.0 | 0.00 | 0.00 | 0.00 | 26 | 1007.5 |
| 20260503220809 | 70 | 226 | 5.0 | 13.0 | 0.00 | 0.00 | 0.00 | 26 | 1007.5 |
| 20260503220306 | 69 | 215 | 6.0 | 9.0 | 0.00 | 0.00 | 0.00 | 26 | 1007.5 |
| 20260503215803 | 68 | 235 | 3.0 | 8.0 | 0.00 | 0.00 | 0.00 | 27 | 1007.5 |
| 20260503215259 | 69 | 255 | 7.0 | 10.0 | 0.00 | 0.00 | 0.00 | 26 | 1007.6 |
| 20260503214757 | 69 | 158 | 1.0 | 8.0 | 0.00 | 0.00 | 0.00 | 26 | 1007.7 |
| 20260503214254 | 69 | 244 | 2.0 | 14.0 | 0.00 | 0.00 | 0.00 | 26 | 1007.8 |
| 20260503213752 | 70 | 267 | 3.0 | 6.0 | 0.00 | 0.00 | 0.00 | 25 | 1007.6 |
| 20260503213249 | 69 | 218 | 1.0 | 8.0 | 0.00 | 0.00 | 0.00 | 25 | 1007.5 |
| 20260503212746 | 68 | 246 | 4.0 | 13.0 | 0.00 | 0.00 | 0.00 | 27 | 1007.7 |
| 20260503212244 | 69 | 205 | 8.0 | 13.0 | 0.00 | 0.00 | 0.00 | 25 | 1007.4 |
| 20260503211741 | 69 | 176 | 1.0 | 8.0 | 0.00 | 0.00 | 0.00 | 26 | 1007.4 |
| 20260503211238 | 69 | 242 | 8.0 | 11.0 | 0.00 | 0.00 | 0.00 | 26 | 1007.8 |
| 20260503210733 | 69 | 199 | 5.0 | 13.0 | 0.00 | 0.00 | 0.00 | 26 | 1007.8 |
| 20260503210231 | 70 | 190 | 0.0 | 7.0 | 0.00 | 0.00 | 0.00 | 29 | 1007.8 |
| 20260503205726 | 69 | 172 | 2.0 | 9.0 | 0.00 | 0.00 | 0.00 | 26 | 1008.0 |
| 20260503205222 | 69 | 92 | 2.0 | 10.0 | 0.00 | 0.00 | 0.00 | 25 | 1007.8 |
| 20260503204718 | 70 | 215 | 6.0 | 8.0 | 0.00 | 0.00 | 0.00 | 26 | 1007.7 |
| 20260503204217 | 69 | 266 | 2.0 | 6.0 | 0.00 | 0.00 | 0.00 | 30 | 1007.8 |
| 20260503203713 | 69 | 152 | 4.0 | 14.0 | 0.00 | 0.00 | 0.00 | 29 | 1007.8 |
| 20260503203211 | 69 | 276 | 5.0 | 9.0 | 0.00 | 0.00 | 0.00 | 29 | 1007.9 |
| 20260503202708 | 69 | 196 | 3.0 | 9.0 | 0.00 | 0.00 | 0.00 | 28 | 1007.7 |
| 20260503202206 | 69 | 153 | 2.0 | 7.0 | 0.00 | 0.00 | 0.00 | 30 | 1008.0 |
| 20260503201704 | 68 | 204 | 2.0 | 13.0 | 0.00 | 0.00 | 0.00 | 32 | 1008.1 |
| 20260503201201 | 68 | 247 | 6.0 | 13.0 | 0.00 | 0.00 | 0.00 | 31 | 1008.0 |
| 20260503200657 | 69 | 248 | 3.0 | 13.0 | 0.00 | 0.00 | 0.00 | 29 | 1008.0 |
| 20260503200153 | 69 | 216 | 6.0 | 15.0 | 0.00 | 0.00 | 0.00 | 31 | 1008.1 |
| 20260503195650 | 68 | 237 | 3.0 | 11.0 | 0.00 | 0.00 | 0.00 | 30 | 1008.1 |
| 20260503195147 | 68 | 253 | 8.0 | 13.0 | 0.00 | 0.00 | 0.00 | 30 | 1008.1 |
| 20260503194644 | 69 | 203 | 9.0 | 17.0 | 0.00 | 0.00 | 0.00 | 30 | 1008.2 |
| 20260503194140 | 69 | 231 | 3.0 | 10.0 | 0.00 | 0.00 | 0.00 | 33 | 1008.1 |
| 20260503193637 | 70 | 238 | 6.0 | 8.0 | 0.00 | 0.00 | 0.00 | 31 | 1008.2 |
| 20260503193132 | 69 | 161 | 5.0 | 9.0 | 0.00 | 0.00 | 0.00 | 32 | 1008.3 |
| 20260503192628 | 68 | 192 | 2.0 | 10.0 | 0.00 | 0.00 | 0.00 | 33 | 1008.2 |
| 20260503192124 | 68 | 193 | 4.0 | 9.0 | 0.00 | 0.00 | 0.00 | 35 | 1008.2 |
| 20260503191621 | 69 | 264 | 6.0 | 14.0 | 0.00 | 0.00 | 0.00 | 34 | 1008.2 |
| 20260503191118 | 69 | 150 | 6.0 | 10.0 | 0.00 | 0.00 | 0.00 | 33 | 1008.3 |
| 20260503190615 | 68 | 188 | 3.0 | 7.0 | 0.00 | 0.00 | 0.00 | 36 | 1008.2 |
| 20260503190112 | 69 | 188 | 2.0 | 3.0 | 0.00 | 0.00 | 0.00 | 35 | 1008.4 |
| 20260503185608 | 68 | 292 | 5.0 | 10.0 | 0.00 | 0.00 | 0.00 | 34 | 1008.3 |
| 20260503185108 | 68 | 229 | 7.0 | 11.0 | 0.00 | 0.00 | 0.00 | 33 | 1008.7 |
| 20260503184604 | 68 | 240 | 13.0 | 15.0 | 0.00 | 0.00 | 0.00 | 34 | 1008.6 |
| 20260503184101 | 68 | 177 | 6.0 | 9.0 | 0.00 | 0.00 | 0.00 | 37 | 1008.6 |
| 20260503183557 | 68 | 208 | 4.0 | 9.0 | 0.00 | 0.00 | 0.00 | 39 | 1008.6 |
| 20260503183055 | 69 | 246 | 6.0 | 9.0 | 0.00 | 0.00 | 0.00 | 39 | 1008.8 |
| 20260503182553 | 68 | 200 | 7.0 | 8.0 | 0.00 | 0.00 | 0.00 | 39 | 1008.6 |
| 20260503182051 | 68 | 247 | 4.0 | 8.0 | 0.00 | 0.00 | 0.00 | 38 | 1008.4 |
| 20260503181547 | 69 | 167 | 1.0 | 6.0 | 0.00 | 0.00 | 0.00 | 38 | 1008.8 |
| 20260503181044 | 68 | 237 | 5.0 | 6.0 | 0.00 | 0.00 | 0.00 | 37 | 1008.8 |
| 20260503180541 | 69 | 141 | 2.0 | 5.0 | 0.00 | 0.00 | 0.00 | 38 | 1008.9 |
| 20260503180038 | 67 | 205 | 3.0 | 7.0 | 0.00 | 0.00 | 0.00 | 38 | 1008.8 |
| 20260503175536 | 68 | 303 | 8.0 | 11.0 | 0.00 | 0.00 | 0.00 | 39 | 1008.9 |
| 20260503175033 | 68 | 311 | 8.0 | 10.0 | 0.00 | 0.00 | 0.00 | 39 | 1008.9 |
| 20260503174530 | 68 | 253 | 2.0 | 5.0 | 0.00 | 0.00 | 0.00 | 41 | 1008.9 |
| 20260503174026 | 68 | 291 | 5.0 | 7.0 | 0.00 | 0.00 | 0.00 | 41 | 1008.8 |
| 20260503173521 | 68 | 160 | 6.0 | 9.0 | 0.00 | 0.00 | 0.00 | 41 | 1008.8 |
| 20260503173017 | 68 | 215 | 4.0 | 7.0 | 0.00 | 0.00 | 0.00 | 42 | 1009.0 |
| 20260503172516 | 67 | 169 | 3.0 | 14.0 | 0.00 | 0.00 | 0.00 | 41 | 1009.0 |
| 20260503172012 | 67 | 34 | 2.0 | 10.0 | 0.00 | 0.00 | 0.00 | 41 | 1008.9 |
| 20260503171509 | 67 | 225 | 8.0 | 13.0 | 0.00 | 0.00 | 0.00 | 41 | 1009.0 |
| 20260503171006 | 67 | 262 | 8.0 | 10.0 | 0.00 | 0.00 | 0.00 | 41 | 1009.0 |
| 20260503170503 | 66 | 286 | 4.0 | 6.0 | 0.00 | 0.00 | 0.00 | 41 | 1009.1 |
| 20260503150855 | 62 | 276 | 3.0 | 11.0 | 0.00 | 0.00 | 0.00 | 48 | 1008.7 |
| 20260503150351 | 62 | 284 | 6.0 | 11.0 | 0.00 | 0.00 | 0.00 | 48 | 1008.8 |
| 20260503140315 | 59 | 210 | 4.0 | 7.0 | 0.00 | 0.00 | 0.00 | 51 | 1008.4 |
| 20260503131245 | 56 | 203 | 4.0 | 6.0 | 0.00 | 0.00 | 0.00 | 53 | 1008.0 |
| 20260503130742 | 56 | 226 | 5.0 | 6.0 | 0.00 | 0.00 | 0.00 | 53 | 1007.9 |
| 20260503130239 | 56 | 256 | 1.0 | 3.0 | 0.00 | 0.00 | 0.00 | 53 | 1008.1 |
| 20260503120205 | 54 | 80 | 0.0 | 1.0 | 0.00 | 0.00 | 0.00 | 55 | 1007.5 |
| 20260503110633 | 52 | 112 | 1.0 | 3.0 | 0.00 | 0.00 | 0.00 | 56 | 1006.9 |
| 20260503110130 | 53 | 148 | 1.0 | 5.0 | 0.00 | 0.00 | 0.00 | 55 | 1007.0 |
| 20260503081434 | 56 | 65 | 1.0 | 1.0 | 0.00 | 0.00 | 0.00 | 57 | 1008.1 |
| 20260503080931 | 56 | 97 | 1.0 | 3.0 | 0.00 | 0.00 | 0.00 | 56 | 1007.9 |
| 20260503080428 | 56 | 112 | 2.0 | 2.0 | 0.00 | 0.00 | 0.00 | 56 | 1008.0 |
| 20260503072904 | 57 | 125 | 2.0 | 7.0 | 0.00 | 0.00 | 0.00 | 55 | 1008.4 |
| 20260503072401 | 57 | 72 | 2.0 | 7.0 | 0.00 | 0.00 | 0.00 | 55 | 1008.7 |
| 20260503071858 | 57 | 102 | 1.0 | 5.0 | 0.00 | 0.00 | 0.00 | 56 | 1008.8 |
| 20260503071355 | 57 | 106 | 1.0 | 6.0 | 0.00 | 0.00 | 0.00 | 56 | 1008.9 |
| 20260503070851 | 57 | 139 | 2.0 | 3.0 | 0.00 | 0.00 | 0.00 | 56 | 1008.9 |
| 20260503070349 | 57 | 106 | 1.0 | 5.0 | 0.00 | 0.00 | 0.00 | 56 | 1009.0 |
| 20260503060309 | 57 | 134 | 2.0 | 7.0 | 0.00 | 0.00 | 0.00 | 51 | 1010.1 |
| 20260503054755 | 57 | 134 | 3.0 | 7.0 | 0.00 | 0.00 | 0.00 | 51 | 1010.3 |
| 20260503054252 | 57 | 125 | 2.0 | 5.0 | 0.00 | 0.00 | 0.00 | 51 | 1010.3 |
| 20260503053749 | 57 | 154 | 2.0 | 5.0 | 0.00 | 0.00 | 0.00 | 50 | 1010.5 |
| 20260503053243 | 58 | 116 | 1.0 | 3.0 | 0.00 | 0.00 | 0.00 | 50 | 1010.5 |
| 20260503052738 | 58 | 44 | 1.0 | 6.0 | 0.00 | 0.00 | 0.00 | 50 | 1010.4 |
| 20260503052236 | 58 | 92 | 3.0 | 6.0 | 0.00 | 0.00 | 0.00 | 49 | 1010.5 |
| 20260503051730 | 58 | 101 | 3.0 | 6.0 | 0.00 | 0.00 | 0.00 | 50 | 1010.4 |
| 20260503051228 | 58 | 97 | 4.0 | 7.0 | 0.00 | 0.00 | 0.00 | 49 | 1010.5 |
| 20260503050725 | 58 | 95 | 2.0 | 5.0 | 0.00 | 0.00 | 0.00 | 50 | 1010.6 |
| 20260503050221 | 58 | 103 | 4.0 | 6.0 | 0.00 | 0.00 | 0.00 | 49 | 1010.5 |
| 20260503045719 | 58 | 116 | 3.0 | 3.0 | 0.00 | 0.00 | 0.00 | 49 | 1010.6 |
| 20260503045216 | 58 | 122 | 1.0 | 3.0 | 0.00 | 0.00 | 0.00 | 50 | 1010.5 |
| 20260503044712 | 58 | 97 | 1.0 | 3.0 | 0.00 | 0.00 | 0.00 | 51 | 1010.7 |
| 20260503044210 | 58 | 121 | 2.0 | 3.0 | 0.00 | 0.00 | 0.00 | 49 | 1010.7 |
| 20260503043707 | 59 | 101 | 0.0 | 6.0 | 0.00 | 0.00 | 0.00 | 50 | 1010.8 |
| 20260503043205 | 59 | 121 | 2.0 | 2.0 | 0.00 | 0.00 | 0.00 | 49 | 1011.0 |
| 20260503042700 | 59 | 116 | 0.0 | 2.0 | 0.00 | 0.00 | 0.00 | 48 | 1011.0 |
| 20260503042156 | 59 | 114 | 4.0 | 5.0 | 0.00 | 0.00 | 0.00 | 47 | 1011.0 |
| 20260503041652 | 60 | 97 | 2.0 | 2.0 | 0.00 | 0.00 | 0.00 | 46 | 1011.3 |
| 20260503041150 | 60 | 106 | 1.0 | 3.0 | 0.00 | 0.00 | 0.00 | 46 | 1011.4 |